Mornington Island Airport Observation History
Time Wind Speed Temp Pressure Rel. Hum Rain
04/08:30am SE 12-18 kts 20.2°c 1019.5 hPa 54% 0.0mm
04/08:00am SE 11-17 kts 19.8°c 1019.3 hPa 53% 0.0mm
04/07:30am SSE 9-14 kts 18.5°c 1018.9 hPa 57% 0.0mm
04/07:00am SSE 10-15 kts 18.3°c 1018.7 hPa 55% 0.0mm
04/06:30am SSE 10-15 kts 18.5°c 1018.5 hPa 51% 0.0mm
04/06:00am SSE 12-18 kts 18.8°c 1018.3 hPa 48% 0.0mm
04/05:30am SSE 11-17 kts 18.9°c 1018.1 hPa 47% 0.0mm
04/05:00am SSE 10-16 kts 19.2°c 1018.1 hPa 47% 0.0mm
04/04:30am SSE 11-18 kts 19.5°c 1018.0 hPa 45% 0.0mm
04/04:00am SSE 10-18 kts 19.5°c 1018.1 hPa 47% 0.0mm
04/03:30am SSE 11-15 kts 19.8°c 1018.3 hPa 46% 0.0mm
04/03:00am SSE 11-19 kts 20.0°c 1018.2 hPa 46% 0.0mm
04/02:30am SE 12-18 kts 20.4°c 1018.4 hPa 46% 0.0mm
04/02:00am SSE 12-19 kts 20.7°c 1018.6 hPa 43% 0.0mm
04/01:30am SSE 13-20 kts 20.9°c 1018.7 hPa 41% 0.0mm
04/01:00am SSE 13-21 kts 21.0°c 1018.9 hPa 43% 0.0mm
04/12:30am SSE 12-20 kts 21.0°c 1019.1 hPa 43% 0.0mm
04/12:00am SSE 11-21 kts 21.3°c 1019.3 hPa 41% 0.0mm
Time Wind Speed Temp Pressure Rel. Hum Rain
03/11:30pm SSE 10-15 kts 21.3°c 1019.4 hPa 44% 0.0mm
03/11:00pm SSE 10-17 kts 21.4°c 1019.4 hPa 45% 0.0mm
03/10:30pm SSE 11-17 kts 21.7°c 1019.5 hPa 43% 0.0mm
03/10:00pm SSE 9-16 kts 21.9°c 1019.6 hPa 45% 0.0mm
03/09:30pm SSE 8-12 kts 21.7°c 1019.6 hPa 50% 0.0mm
03/09:00pm SSE 7-11 kts 21.1°c 1019.5 hPa 61% 0.0mm
03/08:30pm SSE 5-8 kts 20.5°c 1019.3 hPa 68% 0.0mm
03/08:00pm SSE 6-8 kts 20.4°c 1018.6 hPa 69% 0.0mm
03/07:30pm SSE 5-6 kts 20.3°c 1018.3 hPa 67% 0.0mm
03/07:00pm SE 5-6 kts 21.3°c 1017.9 hPa 62% 0.0mm
03/06:30pm SE 6-8 kts 22.2°c 1017.5 hPa 54% 0.0mm
03/06:00pm SE 7-9 kts 23.3°c 1017.1 hPa 45% 0.0mm
03/05:30pm SE 9-13 kts 24.4°c 1016.9 hPa 35% 0.0mm
03/05:00pm SE 10-15 kts 25.0°c 1016.7 hPa 33% 0.0mm
03/04:30pm SE 10-15 kts 25.1°c 1016.7 hPa 32% 0.0mm
03/04:00pm SE 11-16 kts 25.1°c 1016.9 hPa 32% 0.0mm
03/03:30pm SE 10-17 kts 24.9°c 1017.0 hPa 36% 0.0mm
03/03:00pm SE 12-16 kts 24.7°c 1017.3 hPa 36% 0.0mm
03/02:30pm SE 11-17 kts 24.5°c 1017.6 hPa 35% 0.0mm
03/02:00pm SE 11-19 kts 23.8°c 1018.0 hPa 38% 0.0mm
03/01:30pm SSE 13-17 kts 23.6°c 1018.3 hPa 38% 0.0mm
03/01:00pm SE 15-22 kts 23.1°c 1018.7 hPa 38% 0.0mm
03/12:30pm SE 16-26 kts 23.1°c 1019.1 hPa 42% 0.0mm
03/12:13pm SE 15-25 kts 22.7°c 1019.3 hPa 41% 0.0mm
03/12:00pm SE 13-21 kts 23.2°c 1019.5 hPa 43% 0.0mm
03/11:30am SE 15-24 kts 23.0°c 1019.8 hPa 41% 0.0mm
03/11:19am SE 16-26 kts 22.6°c 1020.0 hPa 40% 0.0mm
03/11:00am SE 14-23 kts 22.6°c 1020.0 hPa 41% 0.0mm
03/10:42am SE 15-25 kts 22.5°c 1020.1 hPa 43% 0.0mm
03/10:30am SE 15-21 kts 22.3°c 1020.3 hPa 44% 0.0mm
03/10:00am SE 15-21 kts 21.8°c 1020.5 hPa 44% 0.0mm
03/09:30am SE 15-22 kts 21.4°c 1020.5 hPa 45% 0.0mm
03/09:00am SE 15-23 kts 21.0°c 1020.4 hPa 43% 0.0mm
03/08:30am SE 13-23 kts 20.6°c 1020.1 hPa 45% 0.0mm
03/08:00am SSE 11-17 kts 20.1°c 1019.7 hPa 49% 0.0mm
03/07:30am SSE 12-18 kts 19.7°c 1019.3 hPa 52% 0.0mm
03/07:00am SSE 12-18 kts 19.4°c 1018.9 hPa 51% 0.0mm
03/06:30am SSE 12-19 kts 19.4°c 1018.7 hPa 52% 0.0mm
03/06:00am SSE 11-17 kts 19.6°c 1018.5 hPa 52% 0.0mm
03/05:30am SSE 11-18 kts 19.8°c 1018.4 hPa 51% 0.0mm
03/05:00am SSE 12-19 kts 20.1°c 1018.4 hPa 52% 0.0mm
03/04:30am SE 13-20 kts 20.6°c 1018.3 hPa 51% 0.0mm
03/04:00am SE 12-19 kts 20.9°c 1018.3 hPa 52% 0.0mm
03/03:30am SE 13-21 kts 21.0°c 1018.3 hPa 51% 0.0mm
03/03:00am SSE 14-23 kts 21.3°c 1018.2 hPa 47% 0.0mm
03/02:30am SSE 12-18 kts 21.3°c 1018.4 hPa 49% 0.0mm
03/02:00am SSE 10-15 kts 21.5°c 1018.6 hPa 51% 0.0mm
03/01:30am SSE 11-15 kts 21.4°c 1018.8 hPa 53% 0.0mm
03/01:00am SSE 10-15 kts 21.4°c 1018.7 hPa 50% 0.0mm
03/12:30am SSE 10-16 kts 21.6°c 1018.9 hPa 48% 0.0mm
03/12:00am SSE 11-16 kts 21.8°c 1019.2 hPa 49% 0.0mm
Time Wind Speed Temp Pressure Rel. Hum Rain
02/11:30pm SSE 9-16 kts 21.8°c 1019.4 hPa 51% 0.0mm
02/11:00pm SSE 9-14 kts 21.9°c 1019.5 hPa 52% 0.0mm
02/10:30pm SSE 8-13 kts 21.8°c 1019.7 hPa 54% 0.0mm
02/10:00pm SSE 8-11 kts 21.8°c 1019.6 hPa 53% 0.0mm
02/09:30pm SSE 5-8 kts 20.6°c 1019.5 hPa 66% 0.0mm
02/09:00pm SSE 5-7 kts 20.1°c 1019.1 hPa 78% 0.0mm
02/08:30pm SE 5-7 kts 18.2°c 1018.8 hPa 76% 0.0mm
02/08:00pm SE 3-5 kts 18.4°c 1018.3 hPa 70% 0.0mm
02/07:30pm ESE 5 kts 19.7°c 1017.8 hPa 68% 0.0mm
02/07:00pm ESE 5-6 kts 20.4°c 1017.5 hPa 65% 0.0mm
02/06:30pm SE 6-7 kts 22.2°c 1017.3 hPa 57% 0.0mm
02/06:00pm SE 8-11 kts 23.3°c 1016.9 hPa 48% 0.0mm
02/05:30pm SE 8-11 kts 24.3°c 1016.7 hPa 44% 0.0mm
02/05:00pm SE 11-16 kts 24.7°c 1016.5 hPa 37% 0.0mm
02/04:30pm SE 11-16 kts 25.2°c 1016.6 hPa 35% 0.0mm
02/04:00pm SE 13-19 kts 25.1°c 1016.7 hPa 35% 0.0mm
02/03:30pm SE 12-19 kts 25.0°c 1016.8 hPa 35% 0.0mm
02/03:00pm SE 13-20 kts 25.0°c 1017.1 hPa 35% 0.0mm
02/02:30pm SE 14-20 kts 24.6°c 1017.5 hPa 34% 0.0mm
02/02:00pm SSE 13-21 kts 24.5°c 1017.8 hPa 35% 0.0mm
02/01:30pm SE 14-22 kts 24.1°c 1018.5 hPa 34% 0.0mm
02/01:00pm SSE 15-22 kts 23.8°c 1019.0 hPa 37% 0.0mm
02/12:30pm SE 15-22 kts 23.8°c 1019.4 hPa 37% 0.0mm
02/12:14pm SE 15-25 kts 23.8°c 1019.7 hPa 36% 0.0mm
02/12:00pm SE 16-23 kts 23.1°c 1019.9 hPa 37% 0.0mm
02/11:31am SE 16-27 kts 23.0°c 1020.4 hPa 39% 0.0mm
02/11:30am SE 16-25 kts 23.1°c 1020.4 hPa 40% 0.0mm
02/11:00am SE 16-27 kts 22.8°c 1020.5 hPa 42% 0.0mm
02/10:30am SE 16-28 kts 22.4°c 1020.5 hPa 37% 0.0mm
02/10:02am SE 16-26 kts 22.6°c 1020.6 hPa 39% 0.0mm
02/10:00am SE 16-22 kts 22.5°c 1020.6 hPa 39% 0.0mm
02/09:30am SE 17-27 kts 22.2°c 1020.6 hPa 38% 0.0mm
02/09:18am SE 16-26 kts 22.2°c 1020.4 hPa 39% 0.0mm
02/09:00am SE 15-23 kts 22.2°c 1020.3 hPa 38% 0.0mm
02/08:44am SE 16-26 kts 22.1°c 1020.0 hPa 39% 0.0mm
02/08:30am SE 14-24 kts 22.0°c 1019.7 hPa 40% 0.0mm
02/08:00am SE 13-21 kts 21.7°c 1019.2 hPa 45% 0.0mm
02/07:30am SE 14-22 kts 21.4°c 1018.7 hPa 48% 0.0mm
02/07:00am SE 13-22 kts 21.5°c 1018.5 hPa 48% 0.0mm
02/06:30am SE 12-18 kts 21.4°c 1018.2 hPa 53% 0.0mm
02/06:00am SSE 10-17 kts 21.5°c 1017.8 hPa 54% 0.0mm
02/05:30am SE 11-17 kts 21.7°c 1017.4 hPa 56% 0.0mm
02/05:00am SE 8-15 kts 21.6°c 1017.2 hPa 58% 0.0mm
02/04:30am SE 10-14 kts 22.0°c 1016.9 hPa 53% 0.0mm
02/04:00am SE 9-14 kts 21.9°c 1016.8 hPa 57% 0.0mm
02/03:30am SSE 7-12 kts 21.7°c 1016.7 hPa 60% 0.0mm
02/03:00am SSE 7-11 kts 21.6°c 1016.7 hPa 59% 0.0mm
02/02:30am SSE 8-12 kts 21.5°c 1016.7 hPa 60% 0.0mm
02/02:00am SSE 7-11 kts 21.4°c 1016.8 hPa 65% 0.0mm
02/01:30am S 7-11 kts 21.3°c 1016.8 hPa 70% 0.0mm
02/01:00am S 6-8 kts 21.1°c 1016.8 hPa 78% 0.0mm
02/12:30am SSW 7-10 kts 20.7°c 1016.9 hPa 85% 0.0mm
02/12:00am E 3-4 kts 17.4°c 1016.5 hPa 84% 0.0mm